DW8291 Weather Reports


Display with metric or nautical units.
time (UTC)temp
F
wind
direction
speed
MPH
gust
MPH
rain 1hr
in
rain 24hr
in
rain mn
in
humidity
%
barometer
mb
20260510174603 53 1 0.0 0.0 0.00 0.20 0.00 44 1017.2
20260510174103 53 1 0.0 0.0 0.00 0.20 0.00 43 1017.3
20260510173603 54 1 0.0 0.0 0.00 0.20 0.00 43 1017.1
20260510172603 54 2 0.0 0.0 0.00 0.20 0.00 43 1017.2
20260510172103 54 1 0.0 0.0 0.00 0.20 0.00 44 1017.1
20260510171603 54 11 0.0 0.0 0.00 0.20 0.00 45 1017.0
20260510171104 54 7 0.0 0.0 0.00 0.20 0.00 43 1017.1
20260510170603 55 11 0.0 0.0 0.00 0.20 0.00 44 1017.2
20260510170105 55 0 0.0 0.0 0.00 0.20 0.00 43 1017.0
20260510165604 55 0 0.0 0.0 0.00 0.20 0.00 45 1017.1
20260510164604 54 12 0.0 0.0 0.00 0.20 0.00 46 1017.0
20260510164104 54 1 0.0 0.0 0.00 0.20 0.00 45 1017.1
20260510163604 54 0 0.0 0.0 0.00 0.20 0.00 44 1017.1
20260510163103 54 0 0.0 0.0 0.00 0.20 0.00 43 1017.1
20260510162603 54 0 0.0 0.0 0.00 0.20 0.00 42 1017.2
20260510162104 54 0 0.0 0.0 0.00 0.20 0.00 43 1017.2
20260510161103 53 2 0.0 0.0 0.00 0.20 0.00 43 1017.1
20260510160603 53 1 0.0 0.0 0.00 0.20 0.00 44 1017.1
20260510160104 53 0 0.0 0.0 0.00 0.20 0.00 42 1017.3
20260510155604 53 0 0.0 0.0 0.00 0.20 0.00 41 1017.2
20260510155103 52 12 0.0 0.0 0.00 0.20 0.00 45 1017.2
20260510154604 52 11 0.0 0.0 0.00 0.20 0.00 45 1017.2
20260510154104 52 0 0.0 0.0 0.00 0.20 0.00 44 1017.2
20260510153604 51 0 0.0 0.0 0.00 0.20 0.00 45 1017.1
20260510153103 51 12 0.0 0.0 0.00 0.20 0.00 47 1017.0
20260510152603 51 1 0.0 0.0 0.00 0.20 0.00 46 1016.9
20260510151605 51 1 0.0 0.0 0.00 0.20 0.00 49 1016.7
20260510150603 51 1 0.0 0.0 0.00 0.20 0.00 52 1016.5
20260510145604 50 2 0.0 0.0 0.00 0.20 0.00 55 1016.4
20260510145103 50 1 0.0 0.0 0.00 0.20 0.00 56 1016.3
20260510144603 50 1 0.0 0.0 0.00 0.20 0.00 57 1016.2
20260510144103 50 1 0.0 0.0 0.00 0.20 0.00 59 1016.1
20260510143603 49 1 0.0 0.0 0.00 0.20 0.00 61 1016.1
20260510143104 48 1 0.0 0.0 0.00 0.20 0.00 61 1016.0
20260510142603 48 1 0.0 0.0 0.00 0.20 0.00 61 1016.0
20260510141604 47 1 0.0 0.0 0.00 0.20 0.00 63 1015.9
20260510141104 47 0 0.0 0.0 0.00 0.20 0.00 63 1015.9
20260510140604 47 10 0.0 0.0 0.00 0.20 0.00 62 1015.9
20260510140105 47 1 0.0 0.0 0.00 0.20 0.00 63 1015.8
20260510135604 47 1 0.0 0.0 0.00 0.20 0.00 63 1015.7
20260510135104 47 1 0.0 0.0 0.00 0.20 0.00 65 1015.7
20260510133603 45 2 0.0 0.0 0.00 0.20 0.00 65 1015.5
20260510133103 45 0 0.0 0.0 0.00 0.20 0.00 66 1015.5
20260510132604 45 0 0.0 0.0 0.00 0.20 0.00 65 1015.5
20260510131603 46 1 0.0 0.0 0.00 0.20 0.00 64 1015.3
20260510130104 45 10 0.0 0.0 0.00 0.20 0.00 66 1015.1
20260510125603 45 10 0.0 0.0 0.00 0.20 0.00 65 1015.0
20260510125104 45 9 0.0 0.0 0.00 0.20 0.00 66 1014.9
20260510124603 44 1 0.0 0.0 0.00 0.20 0.00 67 1014.9
20260510124103 44 0 0.0 0.0 0.00 0.20 0.00 68 1014.8
20260510123603 44 2 0.0 0.0 0.00 0.20 0.00 68 1014.8
20260510123104 44 1 0.0 0.0 0.00 0.20 0.00 67 1014.7
20260510122603 45 1 0.0 0.0 0.00 0.20 0.00 66 1014.6
20260510122104 45 1 0.0 0.0 0.00 0.20 0.00 67 1014.6
20260510121604 44 10 0.0 0.0 0.00 0.20 0.00 69 1014.5
20260510120603 43 2 0.0 0.0 0.00 0.20 0.00 69 1014.4
20260510120104 43 1 0.0 0.0 0.00 0.20 0.00 71 1014.3
20260510115603 42 10 0.0 0.0 0.00 0.20 0.00 70 1014.1
20260510115104 42 9 0.0 0.0 0.00 0.20 0.00 70 1014.1
20260510114605 42 10 0.0 0.0 0.00 0.20 0.00 71 1014.0
20260510114104 42 11 0.0 0.0 0.00 0.20 0.00 72 1013.9
20260510113604 41 0 0.0 0.0 0.00 0.20 0.00 72 1013.9
20260510113104 41 0 0.0 0.0 0.00 0.20 0.00 72 1013.8
20260510112103 40 0 0.0 0.0 0.00 0.20 0.00 73 1013.6
20260510111603 40 1 0.0 0.0 0.00 0.20 0.00 74 1013.5
20260510110603 38 1 0.0 0.0 0.00 0.20 0.00 77 1013.3
20260510110104 38 11 0.0 0.0 0.00 0.20 0.00 77 1013.3
20260510105603 37 2 0.0 0.0 0.00 0.20 0.00 79 1013.2
20260510105104 36 1 0.0 0.0 0.00 0.20 0.00 80 1013.0
20260510104604 36 9 0.0 0.0 0.00 0.20 0.00 80 1012.9
20260510104104 35 8 0.0 0.0 0.00 0.20 0.00 80 1012.8
20260510103604 35 1 0.0 0.0 0.00 0.20 0.00 80 1012.7
20260510102603 35 0 0.0 0.0 0.00 0.20 0.00 79 1012.5
20260510102103 36 0 0.0 0.0 0.00 0.20 0.00 79 1012.4
20260510101103 36 0 0.0 0.0 0.00 0.20 0.00 78 1012.2
20260510100604 36 0 0.0 0.0 0.00 0.20 0.00 78 1012.1
20260510095603 36 2 0.0 0.0 0.00 0.20 0.00 77 1012.0
20260510095103 36 10 0.0 0.0 0.00 0.20 0.00 77 1011.9
20260510094603 36 8 0.0 0.0 0.00 0.20 0.00 77 1011.8
20260510094104 37 1 0.0 0.0 0.00 0.20 0.00 76 1011.7
20260510093604 37 0 0.0 0.0 0.00 0.20 0.00 76 1011.7
20260510093104 37 12 0.0 0.0 0.00 0.20 0.00 76 1011.6
20260510092603 37 10 0.0 0.0 0.00 0.20 0.00 76 1011.6
20260510092104 37 1 0.0 0.0 0.00 0.20 0.00 76 1011.6
20260510091603 37 1 0.0 0.0 0.00 0.20 0.00 76 1011.5
20260510091104 37 1 0.0 0.0 0.00 0.20 0.00 75 1011.5
20260510090604 37 11 0.0 0.0 0.00 0.20 0.00 75 1011.5
20260510090105 37 10 0.0 0.0 0.00 0.20 0.00 75 1011.4
20260510085103 37 9 0.0 0.0 0.00 0.20 0.00 74 1011.3
20260510084604 37 2 0.0 0.0 0.00 0.20 0.00 74 1011.2
20260510084103 37 0 0.0 0.0 0.00 0.20 0.00 75 1011.1
20260510083604 37 0 0.0 0.0 0.00 0.20 0.00 75 1011.1
20260510082603 37 1 0.0 0.0 0.00 0.20 0.00 74 1011.1
20260510081603 37 11 0.0 0.0 0.00 0.20 0.00 74 1011.0
20260510081104 37 10 0.0 0.0 0.00 0.20 0.00 75 1010.9
20260510080603 37 10 0.0 0.0 0.00 0.20 0.00 75 1010.9
20260510080104 37 11 0.0 0.0 0.00 0.20 0.00 75 1010.8
20260510075604 38 10 0.0 0.0 0.00 0.20 0.00 75 1010.8
20260510075104 38 1 0.0 0.0 0.00 0.20 0.00 75 1010.7
20260510074604 38 1 0.0 0.0 0.00 0.20 0.00 75 1010.7
20260510074103 38 1 0.0 0.0 0.00 0.20 0.00 75 1010.6
20260510073604 38 1 0.0 0.0 0.00 0.20 0.00 75 1010.6
20260510073104 39 10 0.0 0.0 0.00 0.20 0.00 74 1010.6
20260510072604 39 10 0.0 0.0 0.00 0.20 0.00 73 1010.6
20260510072103 39 7 0.0 0.0 0.00 0.20 0.00 73 1010.6
20260510071604 39 11 0.0 0.0 0.00 0.20 0.00 75 1010.4
20260510070104 40 0 0.0 0.0 0.00 0.20 0.00 72 1010.3
20260510065603 40 0 0.0 0.0 0.00 0.20 0.00 72 1010.3
20260510065103 40 2 0.0 0.0 0.00 0.20 0.00 72 1010.2
20260510064603 40 0 0.0 0.0 0.00 0.20 0.00 72 1010.1
20260510064103 40 10 0.0 0.0 0.00 0.20 0.00 71 1010.1
20260510063603 40 2 0.0 0.0 0.00 0.20 0.00 71 1010.0
20260510063104 40 1 0.0 0.0 0.00 0.20 0.00 71 1009.9
20260510062603 40 1 0.0 0.0 0.00 0.20 0.00 71 1009.8
20260510062103 41 8 0.0 0.0 0.00 0.20 0.00 70 1009.8
20260510061603 41 9 0.0 0.0 0.00 0.20 0.00 70 1009.8
20260510061103 41 9 0.0 0.0 0.00 0.20 0.00 69 1009.8
20260510060603 41 1 0.0 0.0 0.00 0.20 0.00 69 1009.9
20260510060104 41 0 0.0 0.0 0.00 0.20 0.00 68 1009.8
20260510055603 42 0 0.0 0.0 0.00 0.20 0.00 67 1009.7
20260510055103 42 0 0.0 0.0 0.00 0.20 0.00 67 1009.7
20260510054603 42 0 0.0 0.0 0.00 0.20 0.00 66 1009.6
20260510054103 42 0 0.0 0.0 0.00 0.20 0.00 66 1009.5
20260510053603 42 2 0.0 0.0 0.00 0.20 0.00 66 1009.5
20260510052603 42 10 0.0 0.0 0.00 0.20 0.00 65 1009.5
20260510052104 42 7 0.0 0.0 0.00 0.20 0.00 65 1009.4
20260510050604 42 11 0.0 0.0 0.00 0.20 0.00 66 1009.2
20260510050105 43 1 0.0 0.0 0.00 0.20 0.00 67 1009.1
20260510044604 42 0 0.0 0.0 0.00 0.20 0.00 69 1008.8
20260510044104 42 9 0.0 0.0 0.00 0.20 0.00 70 1008.8
20260510043603 43 0 0.0 0.0 0.00 0.20 0.00 70 1008.8
20260510043103 43 0 0.0 0.0 0.00 0.20 0.00 70 1008.8
20260510042103 43 0 0.0 0.0 0.00 0.20 0.00 69 1008.6
20260510041103 44 0 0.0 0.0 0.00 0.20 0.00 67 1008.5
20260510040604 44 11 0.0 0.0 0.00 0.20 0.00 67 1008.5
20260510040105 44 11 0.0 0.0 0.00 0.20 0.00 67 1008.5
20260510035604 44 8 0.0 0.0 0.00 0.20 0.20 67 1008.4
20260510034604 44 8 0.0 0.0 0.00 0.20 0.20 68 1008.3
20260510033603 44 1 0.0 0.0 0.00 0.20 0.20 69 1008.2
20260510033103 44 2 0.0 0.0 0.00 0.20 0.20 69 1008.3
20260510032603 45 1 0.0 0.0 0.00 0.20 0.20 70 1008.3
20260510030603 45 1 0.0 0.0 0.00 0.20 0.20 73 1008.0
20260510030104 45 1 0.0 0.0 0.00 0.20 0.20 72 1008.0
20260510025603 45 1 0.0 0.0 0.00 0.20 0.20 72 1008.0
20260510025103 45 10 0.0 0.0 0.00 0.20 0.20 72 1007.9
20260510023603 45 10 0.0 0.0 0.00 0.20 0.20 73 1007.9
20260510023103 45 10 0.0 0.0 0.00 0.20 0.20 73 1007.8
20260510022603 45 1 0.0 0.0 0.00 0.20 0.20 74 1007.7
20260510022103 46 1 0.0 0.0 0.00 0.20 0.20 73 1007.8
20260510021603 46 1 0.0 0.0 0.00 0.20 0.20 74 1007.7
20260510021103 46 1 0.0 0.0 0.00 0.20 0.20 74 1007.6
20260510020604 46 1 0.0 0.0 0.00 0.20 0.20 75 1007.5
20260510020104 46 1 0.0 0.0 0.00 0.20 0.20 74 1007.3
20260510015604 46 1 0.0 0.0 0.00 0.20 0.20 74 1007.1
20260510015104 46 1 0.0 0.0 0.00 0.20 0.20 74 1007.1
20260510014603 47 1 0.0 0.0 0.00 0.20 0.20 74 1007.0
20260510014103 47 10 0.0 0.0 0.00 0.20 0.20 73 1006.8
20260510013603 47 10 0.0 0.0 0.00 0.20 0.20 73 1006.6
20260510013104 47 10 0.0 0.0 0.00 0.20 0.20 74 1006.5
20260510012104 48 9 0.0 0.0 0.00 0.20 0.20 75 1006.4
20260510011604 48 2 0.0 0.0 0.00 0.20 0.20 74 1006.3
20260510011103 48 1 0.0 0.0 0.00 0.20 0.20 75 1006.1
20260510010603 48 1 0.0 0.0 0.00 0.20 0.20 76 1005.9
20260510010104 48 1 0.0 0.0 0.00 0.20 0.20 76 1005.9
20260510005104 49 1 0.0 0.0 0.00 0.20 0.20 75 1005.7
20260510004603 49 2 0.0 0.0 0.00 0.20 0.20 75 1005.6
20260510003603 50 10 0.0 0.0 0.00 0.20 0.20 75 1005.5
20260510002603 51 0 0.0 0.0 0.00 0.20 0.20 76 1005.4
20260510001104 52 1 0.0 0.0 0.00 0.20 0.20 86 1004.9
20260510000603 52 1 0.0 0.0 0.00 0.20 0.20 86 1004.7
20260510000104 52 1 0.0 0.0 0.00 0.20 0.20 87 1004.6
20260509235603 52 1 0.0 0.0 0.00 0.20 0.20 88 1004.4
20260509235104 52 7 0.0 0.0 0.00 0.20 0.20 89 1004.3
20260509234104 52 11 0.0 0.0 0.00 0.20 0.20 89 1004.2
20260509233603 52 1 0.0 0.0 0.00 0.20 0.20 89 1004.2
20260509233104 52 2 0.0 0.0 0.00 0.20 0.20 89 1004.2
20260509232603 52 1 0.0 0.0 0.00 0.20 0.20 89 1004.2
20260509232103 52 11 0.0 0.0 0.00 0.20 0.20 89 1004.1
20260509231603 52 9 0.0 0.0 0.00 0.20 0.20 90 1004.1
20260509231103 51 9 0.0 0.0 0.00 0.20 0.20 90 1004.0
20260509230603 51 2 0.0 0.0 0.00 0.20 0.20 90 1004.0
20260509225603 51 2 0.0 0.0 0.00 0.20 0.20 91 1003.7
20260509225104 51 1 0.0 0.0 0.01 0.20 0.20 91 1003.7
20260509224104 50 1 0.0 0.0 0.05 0.20 0.20 92 1003.7
20260509223104 50 11 0.0 0.0 0.10 0.20 0.20 91 1003.7
20260509222603 50 1 0.0 0.0 0.13 0.20 0.20 91 1003.7
20260509222104 49 0 0.0 0.0 0.16 0.20 0.20 91 1003.7
20260509221603 49 9 0.0 0.0 0.16 0.20 0.20 91 1003.7
20260509221104 49 1 0.0 0.0 0.17 0.20 0.20 90 1003.8
20260509215604 49 10 0.0 0.0 0.19 0.20 0.20 89 1003.9
20260509215104 50 1 0.0 0.0 0.18 0.19 0.19 89 1004.2
20260509214604 50 0 0.0 0.0 0.17 0.17 0.17 87 1004.4
20260509213604 51 11 0.0 0.0 0.12 0.12 0.12 85 1004.4
20260509213104 52 10 0.0 0.0 0.09 0.09 0.09 83 1004.5
20260509212604 53 0 0.0 0.0 0.06 0.06 0.06 80 1004.1
20260509212104 54 1 0.0 0.0 0.04 0.04 0.04 76 1004.0
20260509211603 55 10 0.0 0.0 0.04 0.04 0.04 79 1003.8
20260509211103 55 11 0.0 0.0 0.03 0.03 0.03 79 1003.7
20260509210603 56 10 0.0 0.0 0.02 0.02 0.02 78 1003.4
20260509210104 56 10 0.0 0.0 0.02 0.02 0.02 77 1003.2
20260509205604 57 9 0.0 0.0 0.01 0.01 0.01 76 1003.1
20260509205104 57 10 0.0 0.0 0.01 0.01 0.01 74 1002.9
20260509204603 58 1 0.0 0.0 0.01 0.01 0.01 72 1002.7
20260509203604 59 9 0.0 0.0 0.00 0.00 0.00 67 1002.3
20260509203104 59 0 0.0 0.0 0.00 0.00 0.00 65 1002.2
20260509202604 60 12 0.0 0.0 0.00 0.00 0.00 65 1002.3
20260509202104 60 11 0.0 0.0 0.00 0.00 0.00 63 1002.4
20260509201604 61 11 0.0 0.0 0.00 0.00 0.00 62 1002.4
20260509201104 61 1 0.0 0.0 0.00 0.00 0.00 62 1002.4
20260509200105 61 11 0.0 0.0 0.00 0.00 0.00 61 1002.4
20260509195604 62 10 0.0 0.0 0.00 0.00 0.00 61 1002.5
20260509195104 62 11 0.0 0.0 0.00 0.00 0.00 60 1002.6
20260509194604 62 10 0.0 0.0 0.00 0.00 0.00 58 1002.7
20260509194104 63 10 0.0 0.0 0.00 0.00 0.00 57 1002.9
20260509193604 62 1 0.0 0.0 0.00 0.00 0.00 59 1002.8
20260509193104 62 1 0.0 0.0 0.00 0.00 0.00 58 1002.9
20260509192604 62 1 0.0 0.0 0.00 0.00 0.00 61 1002.8
20260509190604 61 9 0.0 0.0 0.00 0.00 0.00 60 1003.2
20260509190104 61 0 0.0 0.0 0.00 0.00 0.00 60 1003.2
20260509185603 61 0 0.0 0.0 0.00 0.00 0.00 59 1003.2
20260509185103 61 8 0.0 0.0 0.00 0.00 0.00 59 1003.4
20260509184604 61 9 0.0 0.0 0.00 0.00 0.00 59 1003.3
20260509184104 62 8 0.0 0.0 0.00 0.00 0.00 57 1003.5
20260509183604 62 10 0.0 0.0 0.00 0.00 0.00 55 1003.5
20260509183103 63 10 0.0 0.0 0.00 0.00 0.00 54 1003.6
20260509182604 63 9 0.0 0.0 0.00 0.00 0.00 54 1003.5
20260509182104 63 9 0.0 0.0 0.00 0.00 0.00 56 1003.5
20260509181104 63 0 0.0 0.0 0.00 0.00 0.00 57 1003.6
20260509180604 63 11 0.0 0.0 0.00 0.00 0.00 57 1003.5
20260509180104 63 11 0.0 0.0 0.00 0.00 0.00 57 1003.7
20260509175104 62 9 0.0 0.0 0.00 0.00 0.00 58 1003.9